Flag for Canada Weather past 2 weeks in Guelph, Ontario, Canada

Now
30 °F

Sunny.


Feels Like: 27 °F
Forecast: 24 / 51 °F
Wind: 3 mph from North

Location: Waterloo Well

Current Time: Apr 25, 2015 at 8:40:47 AM

Latest Report: Apr 25, 2015 at 8:00 AM


Visibility: 6 mi

Pressure: 30.00 "Hg

Humidity: 80%

Dew point: 25 °F

Location of GuelphLocation

Historic Weather in Guelph — Graph

°F

Guelph temperature yesterday

Maximum temperature yesterday: 41 °F (at 5:00 PM)
Minimum temperature yesterday: 27 °F (at 2:00 AM)
Average temperature yesterday: 33 °F

Past Weeks' High & Low Weather Summary

 TemperatureHumidityPressure
High72 °F (Apr 13, 1:00 PM)100% (Apr 17, 3:00 AM)30.41 "Hg (Apr 17, 3:00 AM)
Low25 °F (Apr 25, 5:00 AM)19% (Apr 18, 3:00 PM)29.34 "Hg (Apr 20, 5:00 PM)
Average45 °F67%29.95 "Hg
* Reported Apr 10 7:00 AM — Apr 25 7:00 AM, Guelph, Weather by CustomWeather, © 2015

Note: Actual official high and low records may vary slightly from our data, if they occured in-between our weather recording intervals... More about our weather records

Advertising

Guelph weather history for previous 24 hours

 ConditionsComfort  
Time TempWeatherWind HumidityBarometerVisibility
7:00 AM
Sat, Apr 25
25 °FClear.No wind93%30.01 "Hg9 mi
6:00 AM25 °FClear.3 mph93%30.01 "Hg9 mi
5:00 AM25 °FClear.5 mph86%30.01 "Hg9 mi
4:00 AM27 °FClear.5 mph86%30.01 "Hg9 mi
3:00 AM27 °FClear.6 mph86%30.01 "Hg9 mi
2:00 AM27 °FClear.5 mph86%30.03 "Hg9 mi
1:00 AM28 °FClear.5 mph80%30.03 "Hg9 mi
12:00 AM28 °FClear.7 mph74%30.03 "Hg9 mi
11:00 PM
Fri, Apr 24
30 °FClear.6 mph64%30.05 "Hg9 mi
10:00 PM30 °FClear.5 mph64%30.04 "Hg9 mi
9:00 PM34 °FSunny.6 mph56%30.04 "Hg9 mi
7:00 PM39 °FSunny.17 mph33%30.03 "Hg9 mi
6:00 PM41 °FSunny.21 mph33%30.01 "Hg9 mi
5:00 PM41 °FSunny.14 mph45%30.02 "Hg9 mi
4:00 PM39 °FPartly sunny.21 mph48%30.02 "Hg9 mi
3:00 PM39 °FPartly sunny.16 mph52%30.03 "Hg9 mi
2:00 PM37 °FPartly sunny.17 mph52%30.03 "Hg9 mi
1:00 PM37 °FOvercast.18 mph52%30.03 "Hg9 mi
12:00 PM37 °FPartly sunny.15 mph48%30.04 "Hg9 mi
11:00 AM36 °FOvercast.18 mph56%30.04 "Hg9 mi
10:00 AM34 °FBroken clouds.18 mph56%30.03 "Hg9 mi
9:00 AM30 °FPartly sunny.12 mph69%30.04 "Hg9 mi
8:00 AM30 °FPartly sunny.16 mph69%30.04 "Hg9 mi
Weather by CustomWeather, © 2015

See weather overviewHow to use our weather pages